Hollywood, FL

5:14 AM EDT on April 28, 2017 (GMT -0400)
North Perry

Weather History for KHWO - March, 2013

Change the Weather History Date:

Friday, March 8, 2013

  Actual Average (KFLL) Record (KFLL)
Temperature  
Mean Temperature 64 °F -  
Max Temperature 77 °F 77 °F 88 °F (1948)
Min Temperature 52 °F 60 °F 41 °F (1914)
Growing Degree Days 14 (Base 50)    
Moisture  
Dew Point 48 °F    
Average Humidity 61    
Maximum Humidity 93    
Minimum Humidity 28    
Precipitation  
Precipitation 0.00 in - - ()
Sea Level Pressure  
Sea Level Pressure 30.18 in    
Wind  
Wind Speed 6 mph (North)    
Max Wind Speed 12 mph    
Max Gust Speed 18 mph    
Visibility 10 miles    
Events      
Averages and records for this station are not official NWS values.
T = Trace of Precipitation, MM = Missing Value Source: NWS Daily Summary

Daily Weather History Graph

Daily Weather History Graph

Search for Another Location

Airport or City:

Trip Planner

Search our weather history database for the weather conditions in past years. The results will help you decide how hot, cold, wet, or windy it might be!

Date:

Astronomy

Mar. 08, 2013 Rise Set
Actual Time 6:37 AM EST 6:26 PM EST
Civil Twilight 6:14 AM EST 6:49 PM EST
Nautical Twilight 5:47 AM EST 7:16 PM EST
Astronomical Twilight 5:20 AM EST 7:42 PM EST
Moon 4:04 AM EST (3/8) 3:33 PM EST (3/8)
Length of Visible Light 12h 35m
Length of Day
11h 49m
Waning Crescent, 12% of the Moon is Illuminated
Mar 8
Waning Crescent
Mar 11
New
Mar 19
First Quarter
Mar 27
Full
Apr 3
Last Quarter

Hourly Weather History & Observations

Time (EST) Temp. Dew Point Humidity Pressure Visibility Wind Dir Wind Speed Gust Speed Precip Events Conditions
12:53 AM 55.9 °F 52.0 °F 87% 30.19 in 10.0 mi NNW 4.6 mph - N/A   Clear
1:53 AM 55.0 °F 52.0 °F 89% 30.18 in 10.0 mi NW 5.8 mph - N/A   Partly Cloudy
2:53 AM 55.0 °F 51.1 °F 86% 30.16 in 10.0 mi NW 8.1 mph - N/A   Clear
3:53 AM 53.1 °F 51.1 °F 93% 30.16 in 10.0 mi NNW 5.8 mph - N/A   Clear
4:53 AM 53.1 °F 50.0 °F 89% 30.16 in 10.0 mi NNW 4.6 mph - N/A   Clear
5:53 AM 52.0 °F 48.9 °F 89% 30.17 in 10.0 mi NNW 4.6 mph - N/A   Clear
6:53 AM 53.1 °F 48.9 °F 86% 30.19 in 10.0 mi NNW 4.6 mph - N/A   Clear
7:53 AM 59.0 °F 50.0 °F 72% 30.21 in 10.0 mi NNW 8.1 mph - N/A   Clear
8:53 AM 64.9 °F 48.9 °F 56% 30.21 in 10.0 mi North 11.5 mph - N/A   Clear
9:53 AM 70.0 °F 45.0 °F 41% 30.22 in 10.0 mi North 10.4 mph - N/A   Clear
10:53 AM 72.0 °F 44.1 °F 37% 30.22 in 10.0 mi NNE 6.9 mph - N/A   Clear
11:53 AM 73.0 °F 45.0 °F 37% 30.20 in 10.0 mi NW 8.1 mph - N/A   Clear
12:53 PM 73.9 °F 44.1 °F 34% 30.18 in 10.0 mi North 9.2 mph - N/A   Clear
1:53 PM 77.0 °F 42.1 °F 29% 30.15 in 10.0 mi North 5.8 mph - N/A   Clear
2:53 PM 75.9 °F 42.1 °F 30% 30.14 in 10.0 mi West 8.1 mph 18.4 mph N/A   Clear
3:53 PM 77.0 °F 41.0 °F 28% 30.12 in 10.0 mi NNW 8.1 mph - N/A   Clear
4:53 PM 73.0 °F 48.0 °F 41% 30.13 in 10.0 mi East 9.2 mph - N/A   Clear
5:53 PM 71.1 °F 48.9 °F 45% 30.15 in 10.0 mi East 8.1 mph - N/A   Clear
6:53 PM 66.9 °F 50.0 °F 54% 30.16 in 10.0 mi ENE 5.8 mph - N/A   Clear
7:53 PM 66.0 °F 51.1 °F 59% 30.18 in 10.0 mi Calm Calm - N/A   Clear
8:53 PM 64.0 °F 51.1 °F 63% 30.19 in 10.0 mi North 4.6 mph - N/A   Clear
9:53 PM 62.1 °F 51.1 °F 67% 30.20 in 10.0 mi North 5.8 mph - N/A   Clear
10:53 PM 60.1 °F 51.1 °F 72% 30.19 in 10.0 mi NNE 4.6 mph - N/A   Clear
11:53 PM 59.0 °F 50.0 °F 72% 30.17 in 10.0 mi North 5.8 mph - N/A   Clear